Tracking 19293 objects as of 21-Nov-2018
HD Live streaming from Space Station
objects crossing your sky now

ORBCOMM FM 111

Track ORBCOMM FM 111 now!
10-day predictions
ORBCOMM FM 111 is classified as:


NORAD ID: 40089
Int'l Code: 2014-040D
Perigee: 619.9 km
Apogee: 671.4 km
Inclination: 47.0 °
Period: 97.5 minutes
Semi major axis: 7016 km
RCS: Unknown
Launch date: July 14, 2014
Source: United States (US)
Launch site: AIR FORCE EASTERN TEST RANGE (AFETR)
aabbcc
Your satellite tracking list
Your tracking list is empty




NASA's NSSDC Master Catalog

Two Line Element Set (TLE):
1 40089U 14040D   18325.18969552 -.00000049  00000-0  22147-4 0  9998
2 40089  47.0069 246.7689 0036711 344.0722  15.9014 14.77089050234933
Source of the keplerian elements: AFSPC